Location: ????????
(55.5667°N, 37.5833°E)
Time: 15:12:47
(UTC+00:00)

USA 234 - Pass Details

Date: 14 April 2026
Orbit: 1102 x 1106 km, 123.0° (Epoch: 4 January)

Event Time Altitude Azimuth Distance (km) Brightness Sun altitude
Rises 18:54:41 0° 71° (ENE) 3,926 6.0 -17.3°
Reaches altitude 10° 18:57:10 10° 72° (ENE) 2,968 5.3 -17.5°
Maximum altitude 19:03:45 86° 162° (SSE) 1,113 3.2 -18.1°
Drops below altitude 10° 19:10:20 10° 252° (WSW) 2,964 5.7 -18.6°
Sets 19:12:49 0° 253° (WSW) 3,922 6.4 -18.8°
